AO-07 1 07530U 74089B 19058.92774656 -.00000022 00000-0 14258-3 0 9990 2 07530 101.7294 027.7897 0011965 199.7680 164.7544 12.53636888026406 UO-11 1 14781U 84021B 19059.52358743 .00000077 00000-0 15645-4 0 9996 2 14781 97.6230 89.3834 0007606 330.6225 29.4561 14.83066133882432 LO-19 1 20442U 90005G 19058.78334942 .00000011 00000-0 20094-4 0 9990 2 20442 98.6379 1.0374 0012785 113.9960 246.2563 14.32918310520493 HUBBLE 1 20580U 90037B 19058.86336691 .00000451 00000-0 16571-4 0 9993 2 20580 28.4683 224.7623 0002816 15.5276 129.4626 15.09179025384135 MET-2/21 1 22782U 93055A 19059.55385145 .00000030 00000-0 13805-4 0 9997 2 22782 82.5458 250.4639 0023266 125.6569 287.4136 13.83815501287639 AO-27 1 22825U 93061C 19058.88226728 -.00000002 00000-0 17096-4 0 9994 2 22825 98.8945 45.0413 0007848 328.2841 31.7867 14.30052016326113 IO-26 1 22826U 93061D 19059.53928024 .00000007 00000-0 20718-4 0 9995 2 22826 98.8886 45.7177 0008141 313.9948 46.0562 14.30385131326408 FO-29 1 24278U 96046B 19058.63401933 -.00000028 00000-0 55659-5 0 9996 2 24278 098.5199 227.2022 0350652 167.9287 193.0535 13.53089510112537 NOAA-15 1 25338U 98030A 19059.59932648 .00000020 00000-0 27303-4 0 9992 2 25338 98.7565 81.0111 0010197 197.4577 162.6254 14.25896233 81562 GO-32 1 25397U 98043D 19059.41879488 -.00000018 00000-0 11348-4 0 9994 2 25397 98.6785 0.9629 0001714 38.5007 321.6294 14.23660829 72189 ISS 1 25544U 98067A 19059.58113039 .00000585 00000-0 16781-4 0 9999 2 25544 51.6423 181.2243 0003698 63.9072 32.5537 15.52745983158386 NO-44 1 26931U 01043C 19058.82595415 -.00000041 00000-0 15995-4 0 9990 2 26931 067.0506 289.7667 0005339 272.1708 087.8782 14.30533438909045 SO-50 1 27607U 02058C 19058.53048898 -.00000026 00000-0 17227-4 0 9997 2 27607 64.5557 29.4496 0082208 277.6677 81.5096 14.75522886870633 CO-55 1 27844U 03031E 19059.54779466 .00000046 00000-0 40340-4 0 9999 2 27844 98.6868 69.3943 0009653 356.5998 3.5112 14.22162107812632 CO-57 1 27848U 03031J 19058.94566747 .00000032 00000-0 34388-4 0 9992 2 27848 098.6948 069.2754 0009796 009.5010 350.6351 14.21759371812378 RS-22 1 27939U 03042A 19059.39875909 .00000025 00000-0 12981-4 0 9995 2 27939 98.0203 197.4855 0014098 61.3750 298.8876 14.66756564824379 NOAA-18 1 28654U 05018A 19059.62211871 .00000071 00000-0 63302-4 0 9997 2 28654 99.1126 104.8591 0015145 125.7904 234.4677 14.12406692709988 CO-58 1 28895U 05043F 19059.37518864 .00000088 00000-0 25782-4 0 9994 2 28895 97.9400 206.0029 0016252 344.4644 15.6057 14.63633597711344 Falconsat-3 1 30776U 07006E 19058.47314248 .00002309 00000-0 66510-4 0 9998 2 30776 035.4356 080.2186 0002963 199.0034 161.0582 15.35647891663571 CO-65 1 32785U 08021C 19058.88528723 .00000183 00000-0 25418-4 0 9998 2 32785 97.5485 63.8386 0011557 270.7296 89.2598 14.88255213587203 AAUSAT2 1 32788U 08021F 19059.52321135 .00000682 00000-0 67977-4 0 9991 2 32788 97.5045 80.0919 0011289 202.3334 157.7397 14.94611093588463 DO-64 1 32789U 08021G 19058.91776789 .00000663 00000-0 48703-4 0 9998 2 32789 097.4795 111.8582 0013484 139.4959 220.7275 15.06677494590185 CO-66 1 32791U 08021J 19059.55914048 .00000347 00000-0 40627-4 0 9990 2 32791 97.5304 70.3210 0012000 241.6004 118.4006 14.90742192587701 RS-30 1 32953U 08025A 19059.54245694 .00000020 00000-0 75656-4 0 9995 2 32953 82.5032 213.2440 0019208 12.9043 347.2536 12.43087827488629 PRISM 1 33493U 09002B 19058.74215587 -.00000115 00000-0 -44513-5 0 9996 2 33493 98.1234 335.4973 0014660 186.1103 173.9941 14.96522960548557 NOAA-19 1 33591U 09005A 19059.59879652 .00000062 00000-0 58808-4 0 9991 2 33591 99.1724 48.1011 0013497 331.0951 28.9470 14.12336497518369 TISAT-1 1 36799U 10035E 19059.42484880 .00000496 00000-0 56159-4 0 9994 2 36799 98.1378 208.0341 0013604 88.7591 271.5185 14.91013587468334 JUGNU 1 37839U 11058B 19058.84184257 .00000304 00000-0 19879-4 0 9992 2 37839 019.9610 286.9840 0018924 184.9573 263.5513 14.12642504381451 SRMSAT 1 37841U 11058D 19058.93878748 .00000303 00000-0 21501-4 0 9994 2 37841 019.9730 340.8789 0011925 060.8842 000.7104 14.10625005380949 AO-71 1 37854U 11061E 19058.76407806 .00000925 00000-0 55282-4 0 9999 2 37854 101.7151 259.9356 0161573 035.2254 325.9511 15.06157896399845 HRBE 1 37855U 11061F 19059.52734343 .00000848 00000-0 50535-4 0 9994 2 37855 101.7279 258.4974 0174397 43.2527 318.2228 15.05163153400202 ALMASAT-1 1 38078U 12006B 19057.43244440 .00005612 38552-5 45634-4 0 9990 2 38078 69.4259 225.7340 0186436 76.9936 307.2850 15.54934314379995 HORYU-2 1 38340U 12025D 19058.64608685 .00000148 00000-0 29720-4 0 9991 2 38340 98.3435 93.8232 0012753 116.0339 244.2184 14.75671694364783 RS-40 1 38735U 12041C 19059.40004505 .00000043 00000-0 23865-3 0 9990 2 38735 82.4767 296.8631 0017486 113.3370 246.9550 12.42578033298859 BEESAT-3 1 39135U 13015F 19059.54261120 .00000930 00000-0 56338-4 0 9997 2 39135 64.8706 33.9980 0009893 282.7394 77.2626 15.17229122323538 BEESAT-2 1 39136U 13015G 19058.94548778 .00001046 00000-0 63084-4 0 9993 2 39136 064.8700 039.4103 0010977 288.7364 071.2570 15.16663223322982 ZACUBE-1 1 39417U 13066B 19059.51557091 .00000238 00000-0 36231-4 0 9999 2 39417 97.5696 79.1707 0059836 36.4731 324.0536 14.81060683284738 TRITON-1 1 39427U 13066M 19058.88392406 .00000148 00000-0 31496-4 0 9994 2 39427 097.6651 043.1858 0114355 159.6107 200.9720 14.67784262281893 GOMX-1 1 39430U 13066Q 19059.42945104 .00000099 00000-0 27350-4 0 9997 2 39430 97.7319 23.3366 0149836 241.7960 116.8036 14.59201179280521 LO-74 1 39440U 13066AA 19058.83026413 .00000203 00000-0 35074-4 0 9994 2 39440 097.6008 063.8266 0081850 085.2629 275.7923 14.75797793282429 AO-73 1 39444U 13066AE 19058.63118615 .00000252 00000-0 37351-4 0 9996 2 39444 97.5687 80.1669 0058897 33.7908 326.7037 14.81867346283486 SPROUT 1 39770U 14029E 19059.22716771 .00000495 00000-0 61112-4 0 9992 2 39770 97.8788 163.3058 0010217 90.0541 270.1758 14.87190149258415 DUCHIFAT-1 1 40021U 14033M 19058.78091278 .00000347 00000-0 41351-4 0 9995 2 40021 97.9220 343.0326 0014267 58.8322 301.4292 14.90531415255025 NANOSATCBR1 1 40024U 14033Q 19058.74973299 .00000245 00000-0 31468-4 0 9991 2 40024 97.9130 340.6950 0013553 62.0222 298.2365 14.89759646254925 EO-79 1 40025U 14033R 19059.55197315 .00000221 00000-0 29529-4 0 9998 2 40025 97.9067 339.4168 0013822 64.5999 295.6646 14.88872933254937 DTUSAT-2 1 40030U 14033W 19058.71144838 .00000225 00000-0 30271-4 0 9993 2 40030 097.8995 336.9159 0013258 062.9347 297.3220 14.88471657254234 EO-80 1 40032U 14033Y 19059.45212439 .00000270 00000-0 35127-4 0 9995 2 40032 97.9001 337.6555 0013162 61.3367 298.9171 14.88412253254848 ANTELSAT 1 40034U 14033AA 19058.85697679 .00000176 00000-0 33359-4 0 9993 2 40034 97.7774 290.6313 0060182 93.8734 266.9358 14.74048999252350 VELOX-1 1 40057U 14034E 19059.56931729 .00000220 00000-0 38463-4 0 9996 2 40057 98.2195 180.3893 0010114 220.5069 139.5390 14.77591834251507 DAURIA DX 1 1 40071U 14037C 19059.37914938 .00000070 00000-0 16543-4 0 9995 2 40071 98.4070 207.7438 0007600 211.3264 148.7503 14.81237040250921 UKUBE-1 1 40074U 14037F 19059.38955210 .00000145 00000-0 24645-4 0 9992 2 40074 98.4177 215.1795 0003981 199.0488 161.0589 14.83973144251296 HODOYOSHI-1 1 40299U 14070B 19059.41541846 .00000289 00000-0 15120-4 0 9995 2 40299 97.3557 141.4333 0014807 72.9247 351.5772 15.23222010239486 CHUBUSAT-1 1 40300U 14070C 19059.19709505 .00000473 00000-0 23686-4 0 9992 2 40300 97.3368 136.1289 0021385 83.8462 301.6169 15.21925287239210 QSAT-EOS 1 40301U 14070D 19059.45143810 .00001061 00000-0 44229-4 0 9993 2 40301 97.3349 138.8259 0027726 69.7888 346.1015 15.25550779239483 FIREBIRD FU3 1 40377U 15003B 19058.85382330 .00001811 00000-0 75411-4 0 9998 2 40377 099.1006 016.5383 0129589 099.5757 262.0142 15.18245124225098 FIREBIRD FU4 1 40378U 15003C 19059.43455742 .00002150 00000-0 88573-4 0 9992 2 40378 99.1010 17.3070 0129808 97.5541 264.0455 15.18255487225192 GRIFEX 1 40379U 15003D 19059.51932942 .00001376 00000-0 62668-4 0 9990 2 40379 99.0995 12.1518 0137339 113.7667 247.8033 15.15090115224903 NO-84 1 40654U 15025D 19058.32326690 .00009747 00000-0 14270-3 0 05446 2 40654 054.9889 320.0520 0146223 041.6461 319.5637 15.44982799095226 NO-83 1 40655U 15025E 19058.48774189 .00032119 00000-0 22187-3 0 06495 2 40655 054.9685 226.4526 0078847 096.8291 264.1757 15.70056307096208 DEORBITSAIL 1 40719U 15032E 19058.93627465 .00000311 00000-0 51726-4 0 9997 2 40719 097.9214 312.9338 0015419 307.0765 052.9034 14.76646998195910 NUDT-PHONESAT 1 40900U 15049B 19059.50050773 .00001340 00000-0 61161-4 0 9990 2 40900 97.4403 69.9400 0012156 204.2510 281.5447 15.22309192190891 XW-2A 1 40903U 15049E 19059.43781828 .00001228 00000-0 31378-4 0 9999 2 40903 97.3534 101.5107 0013795 176.3661 297.8714 15.41402091193265 XW-2C 1 40906U 15049H 19059.54698946 .00000633 00000-0 36831-4 0 9990 2 40906 97.4662 63.4714 0013566 216.3275 259.8568 15.15522047190316 XW-2D 1 40907U 15049J 19059.40462767 .00000710 00000-0 40693-4 0 9993 2 40907 97.4643 63.0103 0012931 213.2893 256.6742 15.15698190190302 LILACSAT-2 1 40908U 15049K 19059.40382409 .00000525 00000-0 32735-4 0 9990 2 40908 97.4765 62.0221 0014602 219.8004 250.1756 15.13711787190121 XW-2E 1 40909U 15049L 19059.40601517 .00000888 00000-0 47559-4 0 9997 2 40909 97.4592 65.5622 0012884 208.6981 261.8450 15.17536378190465 XW-2F 1 40910U 15049M 19059.40155527 .00000906 00000-0 49091-4 0 9998 2 40910 97.4623 64.7868 0013913 206.5897 262.0338 15.17052080190294 XW-2B 1 40911U 15049N 19059.36586664 .00000302 00000-0 19337-4 0 9994 2 40911 97.4666 63.5921 0012927 214.0979 253.2388 15.15629545190198 DCBB 1 40912U 15049P 19059.40096365 .00000872 00000-0 44432-4 0 9990 2 40912 97.4514 68.1978 0014610 190.4124 275.5145 15.19331324190562 TW-1C 1 40926U 15051B 19059.38888762 .00007317 00000-0 11746-3 0 9997 2 40926 97.1527 105.7971 0010416 69.0491 54.3309 15.53281384193024 TW-1A 1 40928U 15051D 19059.45502797 .00002149 00000-0 55645-4 0 9993 2 40928 97.1593 93.1695 0013282 110.2773 357.7793 15.40055213192200 IO-86 1 40931U 15052B 19056.68665056 .00000721 00000-0 11499-4 0 9991 2 40931 5.9965 142.6125 0012437 354.2232 5.7770 14.76598093184531 LQSat 1 40958U 15057A 19059.38730485 -.00000010 00000-0 61734-5 0 9994 2 40958 97.9105 131.4984 0016834 233.1578 126.8087 14.73067818182569 AO-85 1 40967U 15058D 19058.46690822 .00000161 00000-0 34677-4 0 06137 2 40967 064.7763 136.1373 0210390 237.0416 121.0284 14.75884105091329 ATHENOXAT-1 1 41168U 15077C 19058.94104096 .00001696 00000-0 54944-4 0 9998 2 41168 14.9902 307.6278 0011495 356.5968 105.4369 15.13357456177173 ChubuSat-2 1 41338U 16012B 19058.57164318 .00000299 00000-0 16605-4 0 9999 2 41338 31.0030 130.9239 0013772 82.1360 278.0838 15.00099193166214 ChubuSat-3 1 41339U 16012C 19059.55223493 .00000271 00000-0 14368-4 0 9993 2 41339 31.0100 122.9326 0013584 99.7526 260.4635 15.00278689166354 Horyu-4 1 41340U 16012D 19059.53047200 .00000492 00000-0 30731-4 0 9990 2 41340 31.0049 115.5177 0013994 115.8093 244.3988 15.01179060166440 OUFTI-1 1 41458U 16025C 19059.46627450 .00000955 00000-0 53008-4 0 9993 2 41458 98.1070 140.7240 0167735 8.2814 352.1114 15.05446499155992 e-st@r-II 1 41459U 16025D 19059.45757669 .00000359 00000-0 22988-4 0 9990 2 41459 98.1065 140.4386 0168804 9.3825 351.0477 15.05113608155967 AAUSAT4 1 41460U 16025E 19059.16676685 .00001335 00000-0 71503-4 0 9990 2 41460 98.1015 141.1138 0159251 3.8253 356.4193 15.06844113156022 LO-87 1 41557U 16033B 19059.49945127 .00001359 00000-0 54131-4 0 9996 2 41557 97.4215 147.6571 0013082 333.2886 26.7677 15.26904645153275 NuSat2 1 41558U 16033C 19059.47452205 .00001385 00000-0 52111-4 0 9990 2 41558 97.4236 148.3253 0012184 336.1156 23.9517 15.28800928153293 Lapan A3 1 41603U 16040E 19059.47984008 .00000182 00000-0 11679-4 0 9998 2 41603 97.3762 120.8202 0015078 67.5799 343.1539 15.19671495149009 Swayam 1 41607U 16040J 19058.90112421 .00001365 00000-0 60949-4 0 9999 2 41607 097.3801 122.9542 0015041 064.6563 295.6229 15.22952106149017 Pratham 1 41783U 16059A 19058.73239997 .00000005 00000-0 10306-4 0 9995 2 41783 98.0830 120.6815 0033797 15.2515 344.9698 14.62974506129328 AlSat 1N 1 41789U 16059G 19059.43049023 .00000050 00000-0 18593-4 0 9994 2 41789 98.0846 123.1237 0028457 4.1183 356.0252 14.64218820129515 ScatSat 1 41790U 16059H 19058.68813150 -.00000012 00000-0 80583-5 0 9990 2 41790 098.2257 106.3519 0018917 030.9654 329.2652 14.50890808128232 TY-1 1 41844U 16066D 19059.40693954 .00001145 00000-0 50164-4 0 9995 2 41844 97.4073 68.0916 0014058 210.5634 257.4137 15.23987096127898 Pegasus-1 1 41846U 16066F 19058.65263644 .00000132 00000-0 30887-4 0 9997 2 41846 098.7271 097.0051 0367460 208.2430 149.8392 14.37497775120605 CAS-2T 1 41847U 16066G 19058.69494681 .00000010 00000-0 12366-4 0 9996 2 41847 098.7220 097.5672 0365688 204.9468 153.3653 14.37959524121042 EO-88 1 42017U 17008BX 19059.16033239 .00001379 00000-0 57857-4 0 9997 2 42017 97.4164 127.3453 0006069 183.9429 176.1762 15.25175858113078 SOMP2 1 42701U 98067LJ 19059.40956457 .00312890 53386-4 54104-3 0 9997 2 42701 51.6290 107.6402 0005516 40.7980 319.3443 16.01760417102513 PHOENIX 1 42706U 98067LP 19059.40926957 .00104717 00000-0 40903-3 0 9994 2 42706 51.6255 116.7635 0003425 34.7445 325.3782 15.86216874102310 ZA-AeroSat 1 42713U 98067LU 19059.43346029 .00082370 00000-0 35497-3 0 9993 2 42713 51.6325 122.2774 0003544 40.8641 319.2627 15.84266130101902 SpaceCube 1 42717U 98067LY 19059.48384722 .07084905 12372-4 63216-3 0 9996 2 42717 51.5996 100.9384 0001595 34.9449 325.1681 16.38295055101558 NJUST-1 1 42722U 98067MB 19059.48126163 .00034116 00000-0 17730-3 0 9998 2 42722 51.6377 126.9811 0003632 76.1200 23.7558 15.80631367100917 LO-90 1 42725U 98067ME 19059.53714525 .00161814 21754-4 35963-3 0 9999 2 42725 51.6292 112.0129 0005850 64.1604 77.4693 15.97537583101025 nSIGHT1 1 42726U 98067MF 19059.47166358 .00022105 00000-0 20850-3 0 9993 2 42726 51.6376 150.6740 0004758 105.9828 254.1693 15.66963872100511 SNUSAT 1B 1 42727U 98067MG 19059.00387568 .00188397 25168-4 45285-3 0 9992 2 42727 51.6250 115.4035 0006020 45.3712 314.7786 15.96058462100892 SUSat 1 42730U 98067MK 19059.40458410 .00303975 50198-4 56848-3 0 9994 2 42730 51.6267 109.8522 0005664 37.2916 322.8486 16.00416501100841 Aoxiang-1 1 42735U 98067MQ 19059.53605792 .00040722 00000-0 19750-3 0 9992 2 42735 51.6297 124.8936 0003425 97.5573 44.1156 15.82044303102077 BeEagleSat 1 42736U 98067MR 19059.41788139 .00131346 00000-0 44302-3 0 9991 2 42736 51.6286 117.5395 0003504 68.7446 291.3933 15.89096952100858 CAS-4B 1 42759U 17034B 19059.57637953 .00000056 00000-0 16968-4 0 9996 2 42759 43.0167 115.5219 0011947 278.7876 232.0564 15.09493423 94196 CAS-4A 1 42761U 17034D 19059.47546601 .00000110 00000-0 20301-4 0 9994 2 42761 43.0178 115.6841 0012444 278.7929 213.0510 15.09570165 94172 UCLSat 1 42765U 17036A 19058.86582678 .00001147 00000-0 52526-4 0 9991 2 42765 097.3667 119.1738 0009960 257.4134 102.5989 15.22453527094197 NIUSat 1 42766U 17036B 19058.78187582 .00000810 00000-0 39680-4 0 9990 2 42766 97.3667 117.7848 0014295 246.7316 113.2416 15.20874089 93375 LituanicaSAT 2 1 42768U 17036D 19058.90743581 .00001783 00000-0 80235-4 0 9995 2 42768 097.3696 118.7748 0013846 246.5827 113.3954 15.22324158093451 Aalto 1 1 42775U 17036L 19059.08971445 .00000730 00000-0 35811-4 0 9996 2 42775 97.3655 118.3874 0012587 245.3841 114.6084 15.21142080 93396 URSA MAIOR 1 42776U 17036M 19058.73067277 .00000737 00000-0 36008-4 0 9993 2 42776 097.3663 118.1498 0012375 246.6793 113.3141 15.21259854093344 Max Valier Sat 1 42778U 17036P 19058.80650606 .00000772 00000-0 37052-4 0 9996 2 42778 97.3697 118.8411 0010909 250.4517 109.5542 15.21785409 93378 Pegasus 1 42784U 17036V 19058.80667980 .00000966 00000-0 45000-4 0 9993 2 42784 97.3671 118.9720 0010513 258.0598 101.9460 15.22220504 93393 NUDATSat 1 42787U 17036Y 19059.19827342 .00001416 00000-0 63060-4 0 9996 2 42787 97.3707 119.8624 0010086 263.4312 96.5776 15.23054340 93324 SUCHAI 1 1 42788U 17036Z 19058.84216012 .00001191 00000-0 54229-4 0 9991 2 42788 97.3673 119.2345 0010099 257.0574 102.9535 15.22585737 93484 SKCUBE 1 42789U 17036AA 19058.91715471 .00001134 00000-0 51891-4 0 9992 2 42789 097.3671 119.2712 0009970 256.9018 103.1106 15.22507363093417 VZLUSAT 1 1 42790U 17036AB 19058.92256495 .00001512 00000-0 67090-4 0 9999 2 42790 097.3682 119.5959 0009577 256.0595 103.9577 15.23060172093436 VENTA 1 1 42791U 17036AC 19058.82703910 .00001070 00000-0 49085-4 0 9991 2 42791 097.3669 119.2330 0009602 257.8791 102.1370 15.22531371093398 Robusta 1B 1 42792U 17036AD 19058.79416575 .00001125 00000-0 51260-4 0 9995 2 42792 97.3671 119.2703 0009533 258.2068 101.8099 15.22668783 93416 D-SAT 1 42794U 17036AF 19058.94548774 .00000385 00000-0 38704-4 0 9996 2 42794 097.5563 108.4277 0127569 150.1615 210.6957 14.91027094091839 BIRD-J 1 42820U 98067MU 19059.17631417 .00100530 00000-0 36836-3 0 9998 2 42820 51.6291 123.4895 0004386 31.5994 328.5273 15.87533397 94213 BIRD-G 1 42821U 98067MV 19059.42375293 .00089058 00000-0 37582-3 0 9994 2 42821 51.6253 125.1304 0003770 32.6458 327.4778 15.84674866 94198 BIRD-M 1 42822U 98067MW 19059.17831295 .00088418 00000-0 34781-3 0 9993 2 42822 51.6308 125.0481 0004120 35.0341 325.0934 15.86133789 94175 BIRD-B 1 42823U 98067MX 19059.19252913 .00094820 00000-0 35944-3 0 9996 2 42823 51.6275 124.3753 0004637 47.8049 312.3349 15.86862828 94185 BIRD-N 1 42824U 98067MY 19059.41411963 .00099535 00000-0 39480-3 0 9991 2 42824 51.6315 124.4356 0004399 54.7868 305.3547 15.85915494 94192 TechnoSat 1 42829U 17042E 19059.34531710 .00000099 00000-0 15461-4 0 9996 2 42829 97.5769 316.7312 0015699 69.5024 290.7878 14.90928145 88492 TOMSK-TPU 120 1 42910U 98067MZ 19059.40489022 .00022951 00000-0 15763-3 0 9993 2 42910 51.6354 140.0142 0004753 88.8761 351.9519 15.74573766 87606 TANYUSHA 1 1 42911U 98067NA 19059.49035316 .00033949 00000-0 19192-3 0 9995 2 42911 51.6283 134.5194 0004829 72.0258 26.2065 15.78769099 87667 TANYUSHA 2 1 42912U 98067NB 19059.47236747 .00028034 00000-0 17379-3 0 9999 2 42912 51.6344 137.5182 0003572 82.1540 14.0103 15.76807553 87648 TNS 0-2 1 42914U 98067ND 19059.45426776 .00041534 00000-0 27918-3 0 9992 2 42914 51.6337 140.5951 0003815 83.2840 276.8593 15.74744056 87596 QIKCOM-1 1 42983U 98067NF 19059.53873740 .00004114 00000-0 60409-4 0 9990 2 42983 51.6397 172.9112 0004498 75.6556 284.4936 15.58003384 76164 AO-91 1 43017U 17073E 19059.35024549 .00000387 00000-0 35505-4 0 9999 2 43017 97.7217 345.0440 0259239 157.4026 203.8851 14.78400011 68956 EcAMSat 1 43019U 98067NG 19059.52914515 .00007284 00000-0 95167-4 0 9996 2 43019 51.6398 169.8787 0005045 53.0937 307.0517 15.59825012158520 PICSAT 1 43132U 18004X 19058.76320973 .00001127 00000-0 50600-4 0 9992 2 43132 97.5016 126.7467 0008233 286.1054 73.9276 15.23258769 62615 AO-92 1 43137U 18004AC 19058.94633769 .00000925 00000-0 42104-4 0 9992 2 43137 97.5009 126.9392 0007786 287.8023 72.2363 15.23217282 62633 TianYi 2 1 43155U 18008A 19059.42686324 .00000654 00000-0 42937-4 0 9998 2 43155 97.4967 134.2397 0017696 349.4999 139.2049 15.10950716 61175 Zhou Enlai 1 43156U 18008B 19059.49053537 .00000300 00000-0 22068-4 0 9991 2 43156 97.5008 134.2160 0014346 348.3738 69.1490 15.10440441 61168 TianYi 6 1 43158U 18008D 19059.13558897 .00000071 00000-0 82075-5 0 9993 2 43158 97.4950 133.4745 0013651 345.8911 213.2152 15.10069997 61078 S-Net G 1 43186U 18014G 19059.17450093 .00000266 00000-0 28439-4 0 9993 2 43186 97.7165 329.1968 0011788 23.6116 336.5644 14.96589998 58609 S-Net H 1 43187U 18014H 19059.50862946 .00000247 00000-0 26807-4 0 9991 2 43187 97.7163 329.5174 0011779 22.4167 337.7567 14.96590220 58656 S-Net J 1 43188U 18014J 19058.97353831 .00000330 00000-0 34026-4 0 9995 2 43188 97.7166 329.0028 0011814 24.3208 335.8569 14.96590337 58571 S-Net K 1 43189U 18014K 19059.50872056 .00000240 00000-0 26186-4 0 9999 2 43189 97.7163 329.5156 0011754 22.4038 337.7695 14.96589857 57204 FMN 1 1 43192U 18015A 19058.96321549 .00001364 00000-0 59486-4 0 9996 2 43192 097.3822 188.2715 0015663 329.0682 030.9630 15.23787152059450 Shaonian Xing 1 43199U 18015H 19058.95001652 .00001014 00000-0 44106-4 0 9997 2 43199 097.3604 187.6060 0016817 341.5311 018.5305 15.24420989059499 1KUNS-PF 1 43466U 98067NP 19059.51367331 .00022917 00000-0 26186-3 0 9993 2 43466 51.6377 171.9939 0000829 17.2776 342.8246 15.62074683 45675 UBAKUSAT 1 43467U 98067NQ 19059.52939925 .00014290 00000-0 17815-3 0 9993 2 43467 51.6376 173.5945 0002727 13.8836 346.2232 15.60171355 45662 Irazu 1 43468U 98067NR 19059.52430228 .00028707 00000-0 30812-3 0 9996 2 43468 51.6371 170.5594 0000905 2.6178 357.4821 15.63548653145689 EnduroSat One 1 43551U 98067NZ 19059.53294255 .00018235 00000-0 22988-3 0 9998 2 43551 51.6379 175.8601 0005967 89.4198 270.7478 15.59650857 35863 EQUISat 1 43552U 98067PA 19058.54962169 .00010060 00000-0 13317-3 0 9999 2 43552 51.6386 181.2988 0006387 86.4619 273.7104 15.58964779 35660 UiTMSat 1 1 43589U 98067PD 19058.54953581 .00010947 00000-0 14540-3 0 9990 2 43589 51.6361 182.0296 0005588 94.5461 265.6170 15.58769806 31394 Maya 1 1 43590U 98067PE 19058.61026723 .00011251 00000-0 14910-3 0 9999 2 43590 051.6362 181.6867 0005675 095.6736 264.4904 15.58795550031331 Bhutan 1 1 43591U 98067PF 19058.60474359 .00011123 00000-0 14720-3 0 9998 2 43591 51.6375 181.6558 0005858 96.0673 264.0987 15.58846883 31334 SiriusSat 1 1 43595U 98067PG 19058.54088286 .00010107 00000-0 13751-3 0 9999 2 43595 51.6367 182.7217 0003672 49.9507 310.1807 15.58230536 30490 SiriusSat 2 1 43596U 98067PH 19059.13700920 .00012991 00000-0 17572-3 0 9990 2 43596 51.6378 179.9737 0004321 53.2690 306.8698 15.58087602 30585 Tanusha-3 1 43597U 98067PJ 19058.83238597 .00013010 00000-0 17089-3 0 9999 2 43597 051.6360 180.8989 0003633 065.4559 294.6812 15.58875094030549 SurfSat 1 43614U 18070B 19058.73946145 .00002361 00000-0 65209-4 0 9994 2 43614 93.0375 317.8459 0017464 22.8899 337.3129 15.36998369 25367 CP-7 DAVE 1 43615U 18070C 19058.74076937 .00002177 00000-0 60218-4 0 9999 2 43615 93.0377 317.8472 0017468 22.6496 337.5524 15.36954973 25364 ELFIN-B 1 43616U 18070D 19058.71940482 .00003413 00000-0 93123-4 0 9997 2 43616 93.0336 317.7758 0018579 25.5559 334.6608 15.37324680 25360 ELFIN-A 1 43617U 18070E 19058.91102479 .00003851 00000-0 10498-3 0 9995 2 43617 093.0393 317.9844 0017421 022.3178 337.8829 15.37363756025399 STARS-Me Mother 1 43640U 98067PQ 19058.55794841 .00007473 00000-0 10985-3 0 9990 2 43640 51.6383 184.3449 0005807 41.9913 318.1523 15.56579676 22403 CubeBel 1 1 43666U 18083E 19059.43507944 .00000607 00000-0 33789-4 0 9992 2 43666 97.5306 84.6192 0014562 205.7257 262.0510 15.17326170 18562 Changshagaoxin 1 43669U 18083H 19059.20984698 .00000868 00000-0 47859-4 0 9997 2 43669 97.5167 84.0347 0010566 196.1195 163.9704 15.16590999 18486 Ten-Koh 1 43677U 18084G 19059.09568488 .00000018 00000-0 77393-5 0 9993 2 43677 97.8376 173.6356 0014443 289.0264 70.9353 14.90128587 18143 Diwata-2 1 43678U 18084H 19059.51758466 -.00000314 00000-0 -25683-4 0 9993 2 43678 97.8382 174.3306 0008753 313.9147 46.1345 14.91525503 18223 IRVINE 01 1 43693U 18088D 19059.16260890 .00002258 00000-0 10015-3 0 9993 2 43693 85.0362 31.0690 0016535 235.5081 124.4600 15.20870495 16560 QO-100 1 43700U 18090A 19059.12309015 .00000126 00000-0 00000 0 0 9995 2 43700 0.0359 307.7751 0001507 73.4178 206.5939 1.00274600 1180 Reaktor Hello World 1 43743U 18096AA 19059.44835557 .00000708 00000-0 30024-4 0 9998 2 43743 97.4719 129.5170 0018511 10.6688 113.5455 15.26320244 13917 MinXSS-2 1 43758U 18099A 19059.47770011 .00000756 00000-0 73775-4 0 9996 2 43758 97.7563 132.7807 0014917 340.4646 19.6001 14.95315017 12964 OBJECT B 1 43759U 18099B 19059.49082378 .00000344 00000-0 36705-4 0 9996 2 43759 97.7566 132.7699 0013511 333.9402 26.1137 14.95075639 12958 OBJECT D 1 43761U 18099D 19059.16168864 .00000124 00000-0 16643-4 0 9993 2 43761 97.7590 132.4573 0013907 341.6505 18.4212 14.94976555 12904 AO-95 1 43770U 18099N 19059.17916176 -.00000118 00000-0 -54912-5 0 9998 2 43770 97.7566 132.4061 0014211 347.9975 12.0905 14.94685169 12916 OBJECT P 1 43771U 18099P 19058.84397250 -.00000109 00000-0 -46555-5 0 9992 2 43771 097.7568 132.0753 0014242 349.1859 010.9053 14.94694996012854 RANGE-B 1 43772U 18099Q 19059.17511263 .00000040 00000-0 90145-5 0 9998 2 43772 97.7617 132.4652 0013476 334.9857 25.0709 14.94765926 12903 RANGE-A 1 43773U 18099R 19058.90762668 -.00000175 00000-0 -10730-4 0 9998 2 43773 097.7516 132.0939 0012927 336.5204 023.5425 14.94743756012860 OBJECT T 1 43775U 18099T 19057.76217456 .00000131 00000-0 17310-4 0 9994 2 43775 097.7578 131.0459 0014176 344.6322 015.4466 14.94873013012691 OBJECT U 1 43776U 18099U 19058.43153638 .00000022 00000-0 73370-5 0 9999 2 43776 97.7577 131.7071 0014159 342.3316 17.7410 14.94869870 12787 OBJECT W 1 43778U 18099W 19058.70474878 -.00000073 00000-0 -13725-5 0 9999 2 43778 097.7476 131.8502 0013634 346.6572 013.4286 14.94786323012421 OBJECT X 1 43779U 18099X 19058.76622018 -.00000054 00000-0 39033-6 0 9996 2 43779 97.7577 132.0387 0014121 341.1355 18.9341 14.94870913 12835 MOVE-II 1 43780U 18099Y 19059.16596465 .00000296 00000-0 32418-4 0 9994 2 43780 97.7553 132.4026 0013059 346.9587 13.1294 14.94930961 12894 SNUSat 2 1 43782U 18099AA 19058.89448283 .00000262 00000-0 29290-4 0 9996 2 43782 097.7565 132.1596 0012086 337.3598 022.7088 14.94978831012865 SnugLite 1 43784U 18099AC 19058.82329032 .00000436 00000-0 45102-4 0 9994 2 43784 97.7530 132.0581 0014575 344.8646 15.2136 14.95052411 12863 ITASat 1 1 43786U 18099AE 19058.88915013 .00000442 00000-0 45551-4 0 9997 2 43786 097.7583 132.1879 0014641 343.5434 016.5309 14.95069054012877 OBJECT AH 1 43789U 18099AH 19058.73364720 .00000467 00000-0 47438-4 0 9990 2 43789 97.7558 132.0549 0015168 341.6992 18.3681 14.95452473 12546 EAGLET 1 1 43790U 18099AJ 19058.73315737 .00000264 00000-0 29137-4 0 9997 2 43790 97.7571 132.0736 0012999 349.5204 10.5744 14.95445371 12546 ESEO 1 43792U 18099AL 19058.86526282 .00000157 00000-0 19432-4 0 9990 2 43792 097.7552 132.1912 0012810 346.2681 013.8190 14.95469140012629 CSIM 1 43793U 18099AM 19058.72818791 .00000393 00000-0 40641-4 0 9993 2 43793 97.7505 131.9965 0012329 344.1372 15.9461 14.95558300 12577 Astrocast 0.1 1 43798U 18099AS 19058.78640437 -.00000172 00000-0 -10212-4 0 9992 2 43798 97.7557 132.1422 0011658 329.3983 30.6557 14.95685593 12842 OBJECT AV 1 43801U 18099AV 19059.48574837 .00000613 00000-0 61019-4 0 9994 2 43801 97.7524 132.7189 0013412 334.5994 25.4566 14.95170872 12950 JO-97 1 43803U 18099AX 19059.48526931 .00000629 00000-0 62439-4 0 9992 2 43803 97.7539 132.7400 0014548 342.3298 17.7415 14.95183131 12958 Suomi 100 1 43804U 18099AY 19059.48492559 .00000621 00000-0 61762-4 0 9991 2 43804 97.7538 132.7393 0014624 342.4243 17.6470 14.95186944 12961 Al Farabi 2 1 43805U 18099AZ 19059.48359705 .00000758 00000-0 74077-4 0 9991 2 43805 97.7539 132.7413 0014639 342.5076 17.5638 14.95219502 12969 OBJECT BA 1 43806U 18099BA 19058.88139269 .00000530 00000-0 53462-4 0 9999 2 43806 97.7539 132.1432 0014368 342.8249 17.2484 14.95200107 12562 OBJECT BD 1 43809U 18099BD 19059.34219190 .00000588 00000-0 58484-4 0 9998 2 43809 97.7554 132.6397 0014647 344.0570 16.0187 14.95333224 12630 OBJECT BE 1 43810U 18099BE 19058.87371327 .00000481 00000-0 48857-4 0 9993 2 43810 97.7466 132.0808 0013814 340.5906 19.4787 14.95329589 12412 PWSat 2 1 43814U 18099BJ 19059.13828498 .00009149 00000-0 81447-3 0 9994 2 43814 97.7672 132.4994 0003457 277.9144 82.1793 14.96271279 12309 OBJECT BS 1 43822U 18099BS 19058.94770925 .00000562 00000-0 56649-4 0 9999 2 43822 097.7564 132.2379 0014661 338.7028 021.3580 14.94985934006477 CHOMPTT 1 43855U 18104G 19058.93331921 .00000042 00000-0 00000 0 0 9998 2 43855 85.0377 129.6607 0018375 10.5069 349.6590 15.22162964 11177 ISAT 1 43879U 18111D 19059.49281886 .00000797 00000-0 76270-4 0 9992 2 43879 97.7249 329.0572 0014231 38.1050 322.1174 14.95899693 7478 UWE-4 1 43880U 18111E 19059.54933259 .00000559 00000-0 54774-4 0 9999 2 43880 97.7255 329.1448 0013263 39.0396 321.1780 14.96141939 7484 Sparrow 1 43881U 18111F 19058.94559288 .00000428 00000-0 43078-4 0 9999 2 43881 097.7258 328.5559 0013371 039.4808 320.7385 14.96185345009382 Lume 1 1 43908U 18111AJ 19059.50820815 .00001208 00000-0 52311-4 0 9996 2 43908 97.2977 327.7280 0022592 24.4097 335.8205 15.24079064 9667 FO-98 1 43933U 19003B 19059.53074596 .00000462 00000-0 23485-4 0 9996 2 43933 97.2966 120.5641 0019757 109.9844 357.5321 15.21452659 6301 FO-99 1 43937U 19003F 19059.48482978 .00000857 00000-0 38748-4 0 9997 2 43937 97.2917 120.6000 0026578 100.0174 24.4897 15.23274287 6307 Delphini 1 1 44030U 98067PW 19058.64926350 .00008673 00000-0 13752-3 0 9994 2 44030 051.6384 185.7029 0004838 092.2994 267.8551 15.54243651004262 MYSat 1 1 44045U 18092F 19058.56214547 .00001426 00000-0 53514-4 0 9999 2 44045 51.6413 188.8237 0012359 48.2250 311.9793 15.34340734 2174 KickSat 2 1 44046U 18092G 19059.56921993 .00138563 18510-4 37964-3 0 9993 2 44046 51.6373 177.5322 0009857 0.9251 359.1787 15.93690786 2396 /EX
